Portada
METAR-TAF:

METAR-TAF

Aeroports :

La Argelia

Loja, Equador

latitud: 03-59-45S, longitud: 079-22-19W, altitud: 1236 m

Observació

L'informe es va fer fa 19 minuts, a les 18:00 UTC
Vent 11 kt del Est, variant entre Nord-Est i Est/Sud-Est
Temperatura 29°C
Humitat 40%
Pressió 1015 hPa
Visibilitat 10 km o més
Cel ennuvolat a una alçada de 4000 ft
Cel ennuvolat a una alçada de 20000 ft

METAR: SECA 121800Z 08011KT 050V110 9999 BKN040 BKN200 29/14 Q1015

Hora: 13:19 (18:19 UTC)


TAF: manca

Observacions i pronòstics meteorològics de més de 4000 aeroports (METAR i TAF).

Les estacions disponibles són els punts grocs i vermells al mapa.

Posi el ratolí al punt desitjat per veure el nom de l'estació.

Feu clic per veure les observacions i els pronòstics meteorològics.

Per canviar el mapa: feu clic els botons verds amb una creu de color negre per apropar; al botó verd amb un guió per allunyar la imatge; o en les fletxes verdes per a mapes adjacents.


METAR-TAF: